Flag for U.S.A. Weather past 2 weeks in Atlanta, Georgia, U.S.A.

Now
53 °F

Clear.


Feels Like: 53 °F
Forecast: 58 / 82 °F
Wind: No wind

Location: Fulton County Airport-Brown Field

Current Time: May 5, 2015 at 7:28:03 AM

Latest Report: May 5, 2015 at 6:53 AM


Visibility: 8 mi

Pressure: 30.30 "Hg

Humidity: 93%

Dew point: 51 °F

Location of AtlantaLocation

Historic Weather in Atlanta — Graph

°F

Atlanta temperature yesterday

Maximum temperature yesterday: 81 °F (at 3:53 PM)
Minimum temperature yesterday: 52 °F (at 5:53 AM)
Average temperature yesterday: 67 °F

Past Weeks' High & Low Weather Summary

 TemperatureHumidityPressure
High82 °F (Apr 26, 3:53 PM)97% (Apr 26, 5:53 AM)30.29 "Hg (Apr 26, 5:53 AM)
Low44 °F (Apr 22, 4:53 AM)19% (Apr 24, 3:53 PM)29.60 "Hg (Apr 26, 3:53 AM)
Average63 °F61%29.92 "Hg
* Reported Apr 20 5:53 AM — May 5 5:53 AM, Atlanta, Weather by CustomWeather, © 2015

Note: Actual official high and low records may vary slightly from our data, if they occured in-between our weather recording intervals... More about our weather records

Advertising

Atlanta weather history for previous 24 hours

 ConditionsComfort  
Time TempWeatherWind HumidityBarometerVisibility
5:53 AM
Tue, May 5
53 °FClear.No wind93%30.28 "Hg9 mi
4:53 AM54 °FClear.No wind93%30.27 "Hg10 mi
3:53 AM57 °FClear.No wind87%30.26 "Hg10 mi
2:53 AM56 °FClear.No wind90%30.26 "Hg10 mi
1:53 AM57 °FClear.No wind87%30.27 "Hg10 mi
12:53 AM59 °FClear.No wind84%30.27 "Hg10 mi
11:53 PM
Mon, May 4
60 °FClear.No wind80%30.27 "Hg10 mi
10:53 PM63 °FClear.No wind73%30.27 "Hg10 mi
9:53 PM65 °FClear.No wind66%30.25 "Hg10 mi
8:53 PM74 °FSunny.5 mph45%30.23 "Hg10 mi
7:53 PM77 °FSunny.6 mph40%30.22 "Hg10 mi
6:53 PM79 °FPassing clouds.5 mph34%30.21 "Hg10 mi
5:53 PM80 °FScattered clouds.7 mph32%30.22 "Hg10 mi
4:53 PM79 °FPassing clouds.8 mph34%30.22 "Hg10 mi
3:53 PM81 °FOvercast.7 mph33%30.24 "Hg10 mi
2:53 PM80 °FPassing clouds.N/A31%30.25 "Hg10 mi
1:53 PM79 °FSunny.8 mph34%30.27 "Hg10 mi
12:53 PM79 °FPartly sunny.No wind35%30.29 "Hg10 mi
11:53 AM78 °FSunny.6 mph40%30.29 "Hg10 mi
10:53 AM73 °FSunny.No wind51%30.29 "Hg10 mi
9:53 AM68 °FSunny.No wind59%30.28 "Hg10 mi
8:53 AM60 °FSunny.No wind80%30.27 "Hg10 mi
7:53 AM56 °FSunny.No wind87%30.26 "Hg10 mi
Weather by CustomWeather, © 2015

See weather overviewHow to use our weather pages